#timestamp,LO_Frequency,Hit,StdDev 
1634918415.5,286004631.5,N
1634918435.4,286004631.8,N
1634918455.2,286004632.0,N
1634918475.0,286004631.3,N
1634918475.9,286004631.3,N
1634918495.8,286004634.1,N
1634918515.6,286004634.0,N
1634918535.4,286004634.3,N
1634918555.3,286004634.1,N
1634918575.1,286004634.0,N
1634918576.0,286004634.0,N
1634918595.8,286004633.1,N
1634918615.7,286004635.5,N
1634918635.5,286004635.1,N
1634918655.3,286004634.6,N
1634918675.2,286004636.6,N
1634918695.9,286004638.6,N
1634918715.7,286004638.7,N
1634918735.6,286004640.6,N
1634918755.4,286004638.0,N
1634918775.2,286004639.0,N
1634918795.1,286004638.0,N
1634918796.0,286004638.0,Y
1634918815.8,286004643.4,P
1634918835.6,286045592.5,N
1634918855.5,286045593.0,N
1634918875.3,286045594.0,N
1634918895.1,286045594.1,N
1634918915.9,286045594.0,N
1634918935.7,286045595.7,N
1634918955.5,286045595.9,N
1634918975.4,286045597.5,N
1634918995.2,286045596.9,N
1634919015.0,286045596.6,N
1634919015.9,286045596.6,N
1634919035.8,286045597.7,N
1634919055.6,286045597.7,N
1634919075.4,286045596.9,N
1634919095.3,286045596.7,N
1634919115.1,286045598.4,N
1634919116.0,286045598.4,N
1634919135.8,286045601.1,N
1634919155.7,286045599.3,N
1634919175.5,286045601.1,N
1634919195.3,286045599.0,N
1634919215.2,286045598.8,N
1634919235.9,286045598.2,N
1634919255.7,286045601.0,N
1634919275.6,286045598.2,N
1634919295.4,286045602.6,N
1634919315.2,286045602.3,N
1634919335.1,286045602.0,N
1634919336.0,286045602.0,N
1634919355.8,286045601.3,N
1634919375.6,286045604.4,Y
1634919395.5,286047004.5,P
1634919415.3,286047007.4,N
1634919435.1,286047006.9,N
1634919455.9,286047006.1,N
1634919475.7,286047006.2,N
1634919495.5,286047007.0,N
1634919515.4,286047007.3,N
1634919535.2,286047009.0,N
1634919555.0,286047006.2,N
1634919555.9,286047006.2,N
1634919575.8,286047007.3,N
1634919595.6,286047006.7,N
1634919615.4,286047009.2,N
1634919635.3,286047006.7,N
1634919655.1,286047006.2,N
1634919656.0,286047006.2,N
1634919675.8,286047009.0,N
1634919695.7,286047008.5,N
1634919715.5,286047009.1,N
1634919735.3,286047008.1,N
1634919755.2,286047008.3,N
1634919775.9,286047007.7,N
1634919795.7,286047008.2,N
1634919815.6,286047010.0,N
1634919835.4,286047010.2,N
1634919855.2,286047009.7,N
1634919875.1,286047010.5,N
1634919876.0,286047010.5,N
1634919895.8,286047008.3,N
1634919915.6,286047008.1,N
1634919935.5,286047010.7,Y
1634919955.3,286047004.1,P
1634919975.1,286047001.8,N
1634919995.9,286047003.5,N
1634920015.7,286047004.2,N
1634920035.5,286047002.0,N
1634920055.4,286047001.6,N
1634920075.2,286047001.8,N
1634920095.0,286047001.5,N
1634920095.9,286047001.5,N
1634920115.8,286046999.8,N
1634920135.6,286047002.6,N
1634920155.4,286047000.0,N
1634920175.3,286046999.9,N
1634920195.1,286047000.0,N
1634920196.0,286047000.0,N
1634920215.8,286047001.9,N
1634920235.7,286047002.4,N
1634920255.5,286047000.4,N
1634920275.3,286047000.4,N
1634920295.2,286046999.8,N
1634920315.0,286046998.1,N
1634920315.9,286046998.1,N
1634920335.7,286047001.1,N
1634920355.6,286047000.7,N
1634920375.4,286047002.8,N
1634920395.2,286047001.0,N
1634920415.1,286047000.5,N
1634920416.0,286047000.5,N
1634920435.8,286047000.3,N
1634920455.6,286046998.6,N
1634920475.5,286047000.3,N
1634920495.3,286046998.3,N
1634920515.1,286046998.4,N
1634920535.9,286046996.6,N
1634920555.7,286046997.3,N
1634920575.5,286046997.0,N
1634920595.4,286046996.7,N
1634920615.2,286046999.4,N
1634920635.0,286046999.5,N
1634920635.9,286046999.5,N
1634920655.8,286046995.1,Y
1634920675.6,286046995.2,P
1634920695.4,286046996.1,N
1634920715.3,286046995.9,N
1634920735.1,286046993.6,Y
1634920755.8,286046996.7,P
1634920775.7,286046996.6,P
1634920795.5,286046997.2,P
1634920815.4,286046997.4,Y
1634920835.2,286047000.8,P
1634920855.0,286047001.2,N
1634920855.9,286047001.2,N
1634920875.8,286047000.8,N
1634920895.6,286047001.0,N
1634920915.4,286047000.7,N
1634920935.3,286046998.7,N
1634920955.1,286046998.9,N
1634920956.0,286046998.9,N
1634920975.8,286046999.1,N
1634920995.7,286046996.9,N
1634921015.5,286046996.6,N
1634921035.3,286046998.4,N
1634921055.2,286046997.2,N
1634921075.9,286046996.8,N
1634921095.7,286046994.9,Y
1634921115.6,286046997.7,P
1634921135.4,286046995.3,P
1634921155.2,286046996.2,N
1634921175.1,286046996.2,N
1634921176.0,286046996.2,N
1634921195.8,286046996.4,N
1634921215.6,286046993.5,Y
1634921235.5,286046996.9,P
1634921255.3,286046997.2,P
1634921275.1,286046995.0,P
1634921295.9,286046998.0,N
1634921315.7,286046995.0,Y
1634921335.5,286046998.6,P
1634921355.4,286046999.0,N
1634921375.2,286046999.2,N
1634921395.0,286046999.2,N
1634921395.9,286046999.2,N
1634921415.8,286046996.5,Y
1634921435.6,286046999.5,P
1634921455.4,286046999.5,N
1634921475.3,286046995.3,P
1634921495.1,286046994.9,N
1634921496.0,286046994.9,N
1634921515.8,286046995.7,N
1634921535.7,286046996.0,N
1634921555.5,286046995.4,N
1634921575.3,286046998.0,N
1634921595.2,286046997.2,N
1634921615.9,286046995.4,N
1634921635.7,286046993.7,Y
1634921655.6,286046999.3,P
1634921675.4,286046997.3,N
1634921695.2,286046997.7,N
1634921715.1,286046994.9,Y
1634921716.0,286046994.9,P
1634921735.8,286046998.9,N
1634921755.6,286046996.5,N
1634921775.5,286046996.7,N
1634921795.3,286046997.8,N
1634921815.1,286046996.5,N
1634921835.9,286046997.1,N
1634921855.7,286046997.7,N
1634921875.5,286046997.3,N
1634921895.4,286046996.8,Y
1634921915.2,286047000.8,P
1634921935.0,286046998.5,N
1634921935.9,286046998.5,N
1634921955.8,286046998.9,N
1634921975.6,286046999.4,N
1634921995.4,286046999.2,N
